| time (UTC) | temp F | wind direction | speed MPH | gust MPH | rain 1hr in | rain 24hr in | rain mn in | humidity % | barometer mb |
| 20260505041209 | 62 | 245 | 6.0 | 8.0 | 0.00 | 0.00 | 0.00 | 72 | 1003.0 |
| 20260505040710 | 62 | 245 | 5.0 | 8.0 | 0.00 | 0.00 | 0.00 | 72 | 1003.0 |
| 20260505040209 | 63 | 245 | 3.0 | 3.0 | 0.00 | 0.00 | 0.00 | 70 | 1003.0 |
| 20260505035709 | 64 | 245 | 9.0 | 9.0 | 0.00 | 0.00 | 0.00 | 66 | 1003.0 |
| 20260505035209 | 63 | 245 | 7.0 | 7.0 | 0.00 | 0.00 | 0.00 | 67 | 1003.0 |
| 20260505034709 | 63 | 245 | 3.0 | 6.0 | 0.00 | 0.00 | 0.00 | 68 | 1003.0 |
| 20260505034209 | 62 | 245 | 2.0 | 6.0 | 0.00 | 0.00 | 0.00 | 70 | 1003.0 |
| 20260505033709 | 61 | 245 | 2.0 | 2.0 | 0.00 | 0.00 | 0.00 | 71 | 1002.0 |
| 20260505033210 | 61 | 245 | 2.0 | 2.0 | 0.00 | 0.00 | 0.00 | 71 | 1003.0 |
| 20260505032709 | 61 | 245 | 4.0 | 4.0 | 0.00 | 0.00 | 0.00 | 71 | 1003.0 |
| 20260505032210 | 60 | 245 | 0.0 | 4.0 | 0.00 | 0.00 | 0.00 | 70 | 1003.0 |
| 20260505031711 | 60 | 245 | 3.0 | 4.0 | 0.00 | 0.00 | 0.00 | 70 | 1003.0 |
| 20260505031209 | 60 | 245 | 2.0 | 5.0 | 0.00 | 0.00 | 0.00 | 70 | 1003.0 |
| 20260505030709 | 60 | 245 | 3.0 | 7.0 | 0.00 | 0.00 | 0.00 | 69 | 1003.0 |
| 20260505030211 | 60 | 245 | 2.0 | 5.0 | 0.00 | 0.00 | 0.00 | 69 | 1003.0 |
| 20260505025712 | 59 | 245 | 4.0 | 8.0 | 0.00 | 0.00 | 0.00 | 69 | 1003.0 |
| 20260505025212 | 59 | 245 | 3.0 | 4.0 | 0.00 | 0.00 | 0.00 | 69 | 1003.0 |
| 20260505024709 | 60 | 245 | 1.0 | 4.0 | 0.00 | 0.00 | 0.00 | 68 | 1003.0 |
| 20260505024211 | 60 | 245 | 1.0 | 3.0 | 0.00 | 0.00 | 0.00 | 69 | 1003.0 |
| 20260505023711 | 60 | 245 | 3.0 | 6.0 | 0.00 | 0.00 | 0.00 | 68 | 1003.0 |
| 20260505023211 | 60 | 245 | 2.0 | 3.0 | 0.00 | 0.00 | 0.00 | 69 | 1003.0 |
| 20260505022711 | 60 | 245 | 3.0 | 4.0 | 0.00 | 0.00 | 0.00 | 69 | 1003.0 |
| 20260505022212 | 60 | 245 | 4.0 | 4.0 | 0.00 | 0.00 | 0.00 | 70 | 1003.0 |
| 20260505021712 | 60 | 245 | 4.0 | 4.0 | 0.00 | 0.00 | 0.00 | 71 | 1003.0 |
| 20260505021212 | 60 | 245 | 2.0 | 7.0 | 0.00 | 0.00 | 0.00 | 69 | 1003.0 |
| 20260505020711 | 59 | 245 | 3.0 | 6.0 | 0.00 | 0.00 | 0.00 | 64 | 1003.0 |
| 20260505020209 | 59 | 245 | 1.0 | 2.0 | 0.00 | 0.00 | 0.00 | 63 | 1004.0 |
| 20260505015709 | 59 | 245 | 0.0 | 2.0 | 0.00 | 0.00 | 0.00 | 57 | 1004.0 |
| 20260505015209 | 59 | 245 | 0.0 | 0.0 | 0.00 | 0.00 | 0.00 | 57 | 1003.0 |
| 20260505014709 | 59 | 245 | 0.0 | 1.0 | 0.00 | 0.00 | 0.00 | 56 | 1003.0 |
| 20260505014212 | 59 | 245 | 0.0 | 1.0 | 0.00 | 0.00 | 0.00 | 56 | 1003.0 |
| 20260505013710 | 59 | 245 | 0.0 | 0.0 | 0.00 | 0.00 | 0.00 | 56 | 1003.0 |
| 20260505013210 | 59 | 245 | 0.0 | 1.0 | 0.00 | 0.00 | 0.00 | 55 | 1003.0 |
| 20260505012709 | 60 | 245 | 1.0 | 1.0 | 0.00 | 0.00 | 0.00 | 54 | 1003.0 |
| 20260505012211 | 60 | 245 | 3.0 | 3.0 | 0.00 | 0.00 | 0.00 | 55 | 1003.0 |
| 20260505011709 | 60 | 245 | 3.0 | 3.0 | 0.00 | 0.00 | 0.00 | 54 | 1003.0 |
| 20260505011209 | 60 | 245 | 3.0 | 4.0 | 0.00 | 0.00 | 0.00 | 54 | 1003.0 |
| 20260505010709 | 60 | 245 | 1.0 | 1.0 | 0.00 | 0.00 | 0.00 | 54 | 1003.0 |
| 20260505010211 | 61 | 245 | 0.0 | 3.0 | 0.00 | 0.00 | 0.00 | 53 | 1003.0 |
| 20260505005711 | 61 | 245 | 0.0 | 2.0 | 0.00 | 0.00 | 0.00 | 53 | 1003.0 |
| 20260505005212 | 61 | 245 | 0.0 | 2.0 | 0.00 | 0.00 | 0.00 | 53 | 1003.0 |
| 20260505004710 | 62 | 245 | 2.0 | 3.0 | 0.00 | 0.00 | 0.00 | 52 | 1003.0 |
| 20260505004209 | 63 | 245 | 1.0 | 2.0 | 0.00 | 0.00 | 0.00 | 49 | 1003.0 |
| 20260505003710 | 64 | 245 | 0.0 | 2.0 | 0.00 | 0.00 | 0.00 | 48 | 1003.0 |
| 20260505003209 | 65 | 245 | 1.0 | 3.0 | 0.00 | 0.00 | 0.00 | 46 | 1003.0 |
| 20260505002709 | 65 | 245 | 2.0 | 2.0 | 0.00 | 0.00 | 0.00 | 43 | 1003.0 |
| 20260505002210 | 66 | 245 | 1.0 | 6.0 | 0.00 | 0.00 | 0.00 | 41 | 1003.0 |
| 20260505001709 | 67 | 245 | 1.0 | 1.0 | 0.00 | 0.00 | 0.00 | 40 | 1003.0 |
| 20260505001209 | 67 | 245 | 2.0 | 4.0 | 0.00 | 0.00 | 0.00 | 39 | 1003.0 |
| 20260505000709 | 68 | 245 | 2.0 | 7.0 | 0.00 | 0.00 | 0.00 | 39 | 1003.0 |
| 20260505000211 | 68 | 245 | 7.0 | 7.0 | 0.00 | 0.00 | 0.00 | 38 | 1003.0 |
| 20260504235713 | 68 | 245 | 5.0 | 6.0 | 0.00 | 0.00 | 0.00 | 37 | 1003.0 |
| 20260504235209 | 69 | 245 | 4.0 | 4.0 | 0.00 | 0.00 | 0.00 | 37 | 1003.0 |
| 20260504234710 | 69 | 245 | 3.0 | 4.0 | 0.00 | 0.00 | 0.00 | 37 | 1003.0 |
| 20260504234209 | 69 | 245 | 2.0 | 10.0 | 0.00 | 0.00 | 0.00 | 37 | 1003.0 |
| 20260504233222 | 70 | 245 | 6.0 | 7.0 | 0.00 | 0.00 | 0.00 | 36 | 1003.0 |
| 20260504232709 | 70 | 245 | 3.0 | 4.0 | 0.00 | 0.00 | 0.00 | 36 | 1003.0 |
| 20260504232210 | 71 | 245 | 2.0 | 5.0 | 0.00 | 0.00 | 0.00 | 37 | 1003.0 |
| 20260504231710 | 71 | 245 | 4.0 | 7.0 | 0.00 | 0.00 | 0.00 | 37 | 1003.0 |
| 20260504231209 | 71 | 245 | 2.0 | 7.0 | 0.00 | 0.00 | 0.00 | 36 | 1003.0 |
| 20260504230710 | 72 | 245 | 3.0 | 7.0 | 0.00 | 0.00 | 0.00 | 37 | 1003.0 |
| 20260504230209 | 72 | 245 | 2.0 | 7.0 | 0.00 | 0.00 | 0.00 | 38 | 1003.0 |
| 20260504225710 | 71 | 245 | 2.0 | 6.0 | 0.00 | 0.00 | 0.00 | 39 | 1003.0 |
| 20260504225210 | 71 | 245 | 2.0 | 8.0 | 0.00 | 0.00 | 0.00 | 40 | 1003.0 |
| 20260504224710 | 71 | 245 | 2.0 | 4.0 | 0.00 | 0.00 | 0.00 | 40 | 1003.0 |
| 20260504224210 | 71 | 245 | 7.0 | 9.0 | 0.00 | 0.00 | 0.00 | 38 | 1003.0 |
| 20260504223709 | 71 | 245 | 3.0 | 6.0 | 0.00 | 0.00 | 0.00 | 40 | 1003.0 |
| 20260504223210 | 71 | 245 | 3.0 | 6.0 | 0.00 | 0.00 | 0.00 | 39 | 1003.0 |
| 20260504222710 | 71 | 245 | 2.0 | 8.0 | 0.00 | 0.00 | 0.00 | 38 | 1003.0 |
| 20260504222209 | 71 | 245 | 3.0 | 8.0 | 0.00 | 0.00 | 0.00 | 37 | 1003.0 |
| 20260504221709 | 72 | 245 | 5.0 | 9.0 | 0.00 | 0.00 | 0.00 | 37 | 1003.0 |
| 20260504221211 | 72 | 245 | 2.0 | 8.0 | 0.00 | 0.00 | 0.00 | 36 | 1003.0 |
| 20260504220710 | 73 | 245 | 2.0 | 6.0 | 0.00 | 0.00 | 0.00 | 36 | 1003.0 |
| 20260504220210 | 73 | 245 | 3.0 | 7.0 | 0.00 | 0.00 | 0.00 | 34 | 1003.0 |
| 20260504215710 | 74 | 245 | 2.0 | 5.0 | 0.00 | 0.00 | 0.00 | 33 | 1003.0 |
| 20260504215210 | 74 | 245 | 4.0 | 8.0 | 0.00 | 0.00 | 0.00 | 32 | 1003.0 |
| 20260504214709 | 74 | 245 | 3.0 | 5.0 | 0.00 | 0.00 | 0.00 | 32 | 1003.0 |
| 20260504214210 | 74 | 245 | 4.0 | 5.0 | 0.00 | 0.00 | 0.00 | 32 | 1003.0 |
| 20260504213709 | 74 | 245 | 3.0 | 10.0 | 0.00 | 0.00 | 0.00 | 33 | 1003.0 |
| 20260504213210 | 74 | 245 | 6.0 | 6.0 | 0.00 | 0.00 | 0.00 | 33 | 1003.0 |
| 20260504212709 | 74 | 245 | 6.0 | 8.0 | 0.00 | 0.00 | 0.00 | 33 | 1003.0 |
| 20260504212209 | 74 | 245 | 5.0 | 8.0 | 0.00 | 0.00 | 0.00 | 33 | 1003.0 |
| 20260504211710 | 74 | 245 | 3.0 | 8.0 | 0.00 | 0.00 | 0.00 | 33 | 1003.0 |
| 20260504211209 | 73 | 245 | 7.0 | 8.0 | 0.00 | 0.00 | 0.00 | 34 | 1003.0 |
| 20260504210709 | 73 | 245 | 8.0 | 8.0 | 0.00 | 0.00 | 0.00 | 36 | 1003.0 |
| 20260504210209 | 73 | 245 | 6.0 | 8.0 | 0.00 | 0.00 | 0.00 | 39 | 1003.0 |
| 20260504205709 | 72 | 245 | 5.0 | 9.0 | 0.00 | 0.00 | 0.00 | 39 | 1003.0 |
| 20260504205209 | 71 | 245 | 3.0 | 9.0 | 0.00 | 0.00 | 0.00 | 40 | 1003.0 |
| 20260504204710 | 73 | 245 | 7.0 | 11.0 | 0.00 | 0.00 | 0.00 | 38 | 1004.0 |
| 20260504204210 | 73 | 245 | 4.0 | 8.0 | 0.00 | 0.00 | 0.00 | 39 | 1004.0 |
| 20260504203709 | 73 | 245 | 3.0 | 8.0 | 0.00 | 0.00 | 0.00 | 40 | 1004.0 |
| 20260504203209 | 73 | 245 | 7.0 | 8.0 | 0.00 | 0.00 | 0.00 | 39 | 1004.0 |
| 20260504202710 | 73 | 245 | 6.0 | 8.0 | 0.00 | 0.00 | 0.00 | 38 | 1004.0 |
| 20260504202210 | 73 | 245 | 2.0 | 8.0 | 0.00 | 0.00 | 0.00 | 40 | 1004.0 |
| 20260504201710 | 73 | 245 | 4.0 | 9.0 | 0.00 | 0.00 | 0.00 | 39 | 1004.0 |
| 20260504201210 | 73 | 245 | 4.0 | 9.0 | 0.00 | 0.00 | 0.00 | 40 | 1004.0 |
| 20260504200710 | 73 | 245 | 3.0 | 8.0 | 0.00 | 0.00 | 0.00 | 40 | 1004.0 |
| 20260504200209 | 72 | 245 | 3.0 | 5.0 | 0.00 | 0.00 | 0.00 | 40 | 1004.0 |
| 20260504195710 | 72 | 245 | 3.0 | 8.0 | 0.00 | 0.00 | 0.00 | 41 | 1004.0 |
| 20260504195210 | 72 | 245 | 3.0 | 9.0 | 0.00 | 0.00 | 0.00 | 40 | 1004.0 |
| 20260504194710 | 72 | 245 | 3.0 | 8.0 | 0.00 | 0.00 | 0.00 | 41 | 1004.0 |
| 20260504194210 | 72 | 245 | 3.0 | 7.0 | 0.00 | 0.00 | 0.00 | 42 | 1004.0 |
| 20260504193710 | 73 | 245 | 4.0 | 4.0 | 0.00 | 0.00 | 0.00 | 39 | 1004.0 |
| 20260504193211 | 73 | 245 | 2.0 | 8.0 | 0.00 | 0.00 | 0.00 | 40 | 1004.0 |
| 20260504192710 | 72 | 245 | 4.0 | 8.0 | 0.00 | 0.00 | 0.00 | 41 | 1004.0 |
| 20260504192209 | 72 | 245 | 6.0 | 8.0 | 0.00 | 0.00 | 0.00 | 41 | 1005.0 |
| 20260504191709 | 72 | 245 | 6.0 | 11.0 | 0.00 | 0.00 | 0.00 | 40 | 1005.0 |
| 20260504191210 | 73 | 245 | 2.0 | 11.0 | 0.00 | 0.00 | 0.00 | 40 | 1005.0 |
| 20260504190709 | 72 | 245 | 3.0 | 6.0 | 0.00 | 0.00 | 0.00 | 41 | 1005.0 |
| 20260504190209 | 73 | 245 | 6.0 | 10.0 | 0.00 | 0.00 | 0.00 | 39 | 1005.0 |
| 20260504185709 | 72 | 245 | 4.0 | 7.0 | 0.00 | 0.00 | 0.00 | 40 | 1005.0 |
| 20260504185210 | 72 | 245 | 6.0 | 11.0 | 0.00 | 0.00 | 0.00 | 40 | 1005.0 |
| 20260504184710 | 72 | 245 | 3.0 | 11.0 | 0.00 | 0.00 | 0.00 | 39 | 1005.0 |
| 20260504184210 | 72 | 245 | 6.0 | 10.0 | 0.00 | 0.00 | 0.00 | 39 | 1005.0 |
| 20260504183711 | 71 | 245 | 5.0 | 14.0 | 0.00 | 0.00 | 0.00 | 42 | 1005.0 |
| 20260504183209 | 70 | 245 | 3.0 | 4.0 | 0.00 | 0.00 | 0.00 | 43 | 1005.0 |
| 20260504182710 | 71 | 245 | 2.0 | 9.0 | 0.00 | 0.00 | 0.00 | 42 | 1005.0 |
| 20260504182209 | 71 | 245 | 8.0 | 13.0 | 0.00 | 0.00 | 0.00 | 41 | 1005.0 |
| 20260504181709 | 71 | 245 | 6.0 | 8.0 | 0.00 | 0.00 | 0.00 | 43 | 1005.0 |
| 20260504181209 | 70 | 245 | 5.0 | 11.0 | 0.00 | 0.00 | 0.00 | 43 | 1005.0 |
| 20260504180710 | 70 | 245 | 8.0 | 9.0 | 0.00 | 0.00 | 0.00 | 42 | 1005.0 |
| 20260504180210 | 70 | 245 | 3.0 | 11.0 | 0.00 | 0.00 | 0.00 | 44 | 1006.0 |
| 20260504175709 | 69 | 245 | 4.0 | 14.0 | 0.00 | 0.00 | 0.00 | 44 | 1006.0 |
| 20260504175211 | 69 | 245 | 2.0 | 7.0 | 0.00 | 0.00 | 0.00 | 45 | 1006.0 |
| 20260504174710 | 69 | 245 | 10.0 | 10.0 | 0.00 | 0.00 | 0.00 | 44 | 1006.0 |
| 20260504174209 | 69 | 245 | 9.0 | 13.0 | 0.00 | 0.00 | 0.00 | 44 | 1006.0 |
| 20260504173710 | 69 | 245 | 5.0 | 8.0 | 0.00 | 0.00 | 0.00 | 45 | 1006.0 |
| 20260504173209 | 69 | 245 | 6.0 | 9.0 | 0.00 | 0.00 | 0.00 | 45 | 1006.0 |
| 20260504172710 | 69 | 245 | 8.0 | 9.0 | 0.00 | 0.00 | 0.00 | 44 | 1006.0 |
| 20260504172211 | 68 | 245 | 3.0 | 3.0 | 0.00 | 0.00 | 0.00 | 47 | 1006.0 |
| 20260504171709 | 67 | 245 | 4.0 | 6.0 | 0.00 | 0.00 | 0.00 | 47 | 1006.0 |
| 20260504171210 | 67 | 245 | 7.0 | 11.0 | 0.00 | 0.00 | 0.00 | 46 | 1006.0 |
| 20260504170710 | 66 | 245 | 5.0 | 6.0 | 0.00 | 0.00 | 0.00 | 47 | 1006.0 |
| 20260504170210 | 66 | 245 | 7.0 | 9.0 | 0.00 | 0.00 | 0.00 | 46 | 1006.0 |
| 20260504160209 | 64 | 245 | 5.0 | 11.0 | 0.00 | 0.00 | 0.00 | 47 | 1007.0 |
| 20260504150710 | 63 | 245 | 10.0 | 12.0 | 0.00 | 0.00 | 0.00 | 48 | 1007.0 |
| 20260504150209 | 63 | 245 | 6.0 | 11.0 | 0.00 | 0.00 | 0.00 | 48 | 1007.0 |
| 20260504141212 | 60 | 245 | 4.0 | 11.0 | 0.00 | 0.00 | 0.00 | 52 | 1007.0 |
| 20260504140714 | 60 | 245 | 9.0 | 9.0 | 0.00 | 0.00 | 0.00 | 52 | 1007.0 |
| 20260504140212 | 60 | 245 | 6.0 | 6.0 | 0.00 | 0.00 | 0.00 | 52 | 1007.0 |
| 20260504130710 | 58 | 245 | 7.0 | 9.0 | 0.00 | 0.00 | 0.00 | 54 | 1007.0 |
| 20260504130211 | 57 | 245 | 6.0 | 13.0 | 0.00 | 0.00 | 0.00 | 54 | 1008.0 |
| 20260504120213 | 54 | 245 | 2.0 | 8.0 | 0.00 | 0.00 | 0.00 | 57 | 1008.0 |
| 20260504110709 | 52 | 245 | 2.0 | 3.0 | 0.00 | 0.00 | 0.00 | 62 | 1008.0 |
| 20260504110209 | 52 | 245 | 1.0 | 7.0 | 0.00 | 0.00 | 0.00 | 62 | 1008.0 |
| 20260504100210 | 52 | 245 | 2.0 | 5.0 | 0.00 | 0.00 | 0.00 | 58 | 1007.0 |
| 20260504081709 | 49 | 245 | 1.0 | 1.0 | 0.00 | 0.00 | 0.00 | 67 | 1008.0 |
| 20260504081210 | 49 | 245 | 3.0 | 4.0 | 0.00 | 0.00 | 0.00 | 68 | 1008.0 |
| 20260504080709 | 49 | 245 | 4.0 | 6.0 | 0.00 | 0.00 | 0.00 | 70 | 1008.0 |
| 20260504080209 | 48 | 245 | 2.0 | 5.0 | 0.00 | 0.00 | 0.00 | 71 | 1008.0 |
| 20260504070209 | 49 | 245 | 2.0 | 6.0 | 0.00 | 0.00 | 0.00 | 74 | 1009.0 |
| 20260504060209 | 50 | 245 | 2.0 | 7.0 | 0.00 | 0.00 | 0.00 | 71 | 1009.0 |
| 20260504050709 | 52 | 245 | 11.0 | 15.0 | 0.00 | 0.00 | 0.00 | 68 | 1010.0 |
| 20260504050209 | 52 | 245 | 3.0 | 12.0 | 0.00 | 0.00 | 0.00 | 66 | 1010.0 |
| 20260504045709 | 52 | 245 | 6.0 | 6.0 | 0.00 | 0.00 | 0.00 | 65 | 1010.0 |
| 20260504045209 | 52 | 245 | 5.0 | 10.0 | 0.00 | 0.00 | 0.00 | 64 | 1010.0 |
| 20260504044710 | 52 | 245 | 9.0 | 12.0 | 0.00 | 0.00 | 0.00 | 62 | 1010.0 |
| 20260504044210 | 52 | 245 | 7.0 | 12.0 | 0.00 | 0.00 | 0.00 | 60 | 1010.0 |
| 20260504043709 | 52 | 245 | 5.0 | 9.0 | 0.00 | 0.00 | 0.00 | 61 | 1010.0 |
| 20260504043209 | 51 | 245 | 6.0 | 9.0 | 0.00 | 0.00 | 0.00 | 61 | 1010.0 |
| 20260504042709 | 51 | 245 | 6.0 | 9.0 | 0.00 | 0.00 | 0.00 | 61 | 1010.0 |
| 20260504042210 | 51 | 245 | 6.0 | 9.0 | 0.00 | 0.00 | 0.00 | 62 | 1010.0 |
| 20260504041709 | 50 | 245 | 5.0 | 8.0 | 0.00 | 0.00 | 0.00 | 62 | 1010.0 |